sat.trackr.live / text

‹ back to catalog

AMAZONAS 2

NORAD 35942 · 2009-054A

PAYLOAD ACTIVE UNKNOWN

§ Identity

Operator
Country
SPN
Launch date
2009-10-01
Launch site
FRGUI
Launch vehicle
Mass (kg)
RCS (m²)
11.02

Purposes: comms

External: N2YO · Heavens-Above · Gunter

§ Orbital elements

Epoch: 2026-05-16T11:12:30.210048Z

Period
1,436.82 min
Inclination
1.7333°
Eccentricity
0.0004532
Mean motion
1.00221129 rev/d
Perigee alt
35,781.7 km
Apogee alt
35,819.9 km
Semi-major
42,178.9 km
B*
0.0000e+0
RAAN
83.3796°
Arg perigee
37.9482°
Mean anomaly
220.0833°
Rev number
6,086

§ Raw data

AMAZONAS 21 35942U 09054A   26136.46701632 -.00000270  00000+0  00000+0 0  99962 35942   1.7333  83.3796 0004532  37.9482 220.0833  1.00221129 60861

JSON: /api/v1/satellites/35942 · /tle

For live sub-satellite position, see the globe view (requires WebGL).

§ Visibility from observer

Set your observer location to see the next 7 days of passes ≥ 10°. The values pass through the URL so the page stays shareable.

No JS? Fill the form by hand. The geolocation button needs JavaScript.